GFSMW_con_mlcape_159.txt.gz
CAPE
460 644 722 776 816 1034 1078 1084 1139 1293 1305 1228 1205 1304 1451 1729 1863 1627 1534 1490 1704 1900 1777 1439 1522 1460 1548 1879 2010 2006 1900 1136 955 371 0 0 1 0 226 0 4 0 84
596 728 766 834 820 880 972 1078 1084 1260 1306 1462 1474 1504 1547 1618 1831 1840 1707 1572 1704 2012 1851 1813 1717 1870 2053 1933 2136 1937 1278 1069 708 52 0 0 0 102 0 36 0 122 0
527 705 743 792 879 944 1005 986 1100 1182 1257 1384 1555 1594 1661 1670 1587 1535 1618 1839 1976 2240 2279 2078 2064 2030 1609 966 773 810 465 35 103 150 7 0 0 0 0 0 1 0 0
567 668 592 639 742 925 1070 1095 1117 1202 1303 1407 1480 1455 1471 1628 1517 1548 1611 1910 2111 2290 2297 2111 1854 1073 450 143 167 364 155 93 0 1 93 59 17 1 0 0 0 2 0
326 338 390 477 650 742 940 1085 1231 1263 1347 1410 1409 1535 1577 1692 1774 1903 1751 1999 1683 1494 1274 824 262 177 116 75 5 0 7 35 14 3 10 13 15 33 27 1 0 0 0
231 258 256 341 508 704 848 1061 1200 1141 1314 1361 1399 1502 1577 1669 1772 1916 1889 1918 1439 1204 895 345 191 142 33 0 0 0 4 38 38 28 27 15 8 1 23 15 0 0 0
173 187 197 222 373 549 754 1026 1153 1079 1298 1386 1352 1450 1552 1662 1775 2001 2106 1996 1452 1002 804 189 25 0 0 0 0 10 36 68 48 48 3 7 3 6 7 3 0 0 0
84 156 177 218 291 437 663 884 1071 1002 1219 1193 1282 1452 1456 1544 1829 2019 2073 2143 1784 1561 324 95 2 0 0 0 0 48 66 81 25 5 1 0 0 0 0 0 0 0 0
65 82 156 195 259 389 572 705 882 957 1024 1008 1218 1490 1523 1695 1930 2067 1996 1935 1331 434 177 13 0 0 0 2 26 58 76 9 4 0 0 0 0 0 0 0 0 0 4
30 56 142 167 222 364 548 765 848 941 1009 911 1218 1369 1552 1756 2117 2207 1469 1294 421 87 20 0 0 1 0 47 59 31 4 0 2 0 0 0 0 0 0 0 0 0 1
0 34 120 159 185 273 491 669 876 1057 1191 1221 1066 1626 1822 1995 2266 1644 1430 641 66 0 0 0 0 0 0 59 2 0 0 0 0 0 0 0 0 0 0 0 0 0 3
0 48 115 152 199 226 326 636 871 1047 1289 1515 1533 1658 1929 2168 2132 1246 1065 264 10 7 10 0 0 0 56 13 0 0 0 0 0 0 0 0 0 0 0 0 0 0 0
7 70 127 192 214 262 403 601 864 1062 1427 1631 1744 1923 2162 1768 1585 1505 920 259 72 0 0 0 0 0 122 0 0 0 0 0 0 0 0 0 0 0 0 2 0 3 12
35 90 220 341 363 443 505 671 903 1254 1628 1887 1867 2093 2146 1845 1704 1385 606 257 22 0 0 0 0 93 39 0 0 0 0 0 0 0 0 0 0 2 3 10 3 10 11
46 73 122 413 566 721 828 951 1130 1441 1835 2007 2148 2392 2183 1901 1714 1042 514 369 122 18 0 0 67 51 0 0 0 10 0 0 0 0 0 0 0 1 4 5 4 5 4
14 23 75 227 365 671 872 1089 1431 1786 2132 2144 2123 2260 2197 1689 1433 914 537 474 280 4 0 3 14 5 0 0 0 0 0 0 0 0 0 0 0 0 1 3 0 4 3
0 0 0 56 315 662 1022 1288 1655 1937 1976 2142 2162 2061 1615 1353 1136 833 403 196 0 0 0 2 33 18 5 0 0 0 0 0 0 0 0 1 0 2 3 0 1 0 1
18 8 103 298 558 902 1260 1656 1726 1703 1931 1961 1802 1612 1400 1224 798 320 69 0 0 0 0 27 117 28 14 0 0 0 0 0 0 0 0 1 0 1 0 0 0 0 0
392 381 482 600 655 756 1231 1411 1439 1633 1666 1622 1640 1539 1362 1120 569 238 30 0 0 0 0 210 135 13 28 0 0 0 0 0 0 0 0 0 0 0 0 0 1 0 0
521 655 692 683 739 858 1132 1041 1025 1124 1109 1161 1278 1181 1095 926 685 345 118 0 0 0 101 75 6 5 113 0 0 0 0 0 0 0 0 0 0 0 0 0 0 0 0
743 876 919 946 864 801 621 354 446 570 829 863 894 904 960 998 680 343 56 0 0 22 120 11 28 57 29 0 0 0 0 0 0 0 0 0 0 0 0 0 0 0 0
654 602 314 175 175 159 71 7 32 480 719 786 815 979 991 738 498 235 8 0 0 35 105 136 19 6 0 0 0 0 0 0 0 0 0 0 0 0 0 0 0 0 0
423 583 518 624 837 1002 1107 754 543 539 479 466 740 830 917 648 341 142 5 0 1 55 194 161 144 58 0 0 0 0 0 0 0 0 0 0 0 0 0 0 0 0 0
0 0 0 0 0 0 4 386 565 554 676 835 681 655 693 379 67 4 11 16 41 122 171 64 34 30 0 0 0 0 0 0 0 0 0 0 0 0 0 0 0 0 0
0 0 0 0 0 0 0 0 123 460 796 783 585 416 93 22 2 0 0 33 46 47 35 2 27 1 0 0 0 0 0 0 0 0 0 0 0 0 0 0 0 0 0
0 0 0 0 0 0 0 0 0 8 365 648 339 55 1 0 0 0 0 0 0 0 0 0 2 0 0 0 0 0 0 0 0 0 0 0 0 0 0 0 0 0 0

GFSMW_con_mlcape_162.txt.gz
CAPE
133 364 650 791 858 1001 1235 1508 1551 1685 1737 1414 1193 1273 1432 1609 1817 1755 1837 2232 2034 2080 2414 1819 1529 1913 1813 2517 2412 1446 263 195 244 11 0 0 0 6 0 0 0 0 0
35 149 484 789 853 921 1253 1467 1577 1823 1957 1597 1364 1334 1315 1223 1268 1402 1842 2314 2212 2086 2282 2552 2211 2228 2230 2325 2204 1368 83 0 4 1 0 0 0 20 0 0 0 26 3
37 119 309 562 765 881 1282 1556 1739 1697 1984 1628 1738 1913 2097 2086 1760 1686 1621 1648 2194 2319 2604 2981 2927 2906 2866 1690 1333 359 84 0 0 0 8 0 0 0 3 0 2 0 0
53 314 458 676 807 967 1203 1598 1922 1998 1997 2110 1809 1870 1431 1262 1573 1814 1564 1742 2208 2356 2761 3196 3057 2909 1563 1101 699 104 39 49 0 0 4 22 44 16 16 0 0 0 0
33 127 423 643 835 952 1142 1462 1965 2217 2211 2302 2082 1964 2102 1409 1964 2017 2126 2398 2463 2765 2517 2582 2073 1612 1301 1019 386 64 22 0 44 0 0 1 6 5 6 0 0 0 0
132 55 220 502 701 822 992 1250 1830 2428 2485 2400 2498 2223 2041 2135 1859 1946 2132 2070 1982 2108 2253 2036 1755 1478 813 377 62 38 94 198 173 100 8 1 0 0 0 0 0 0 0
510 263 152 282 541 688 840 1041 1579 2320 2544 2533 2477 2568 2459 2527 2564 2590 2405 2206 1890 1837 1841 1634 1164 534 331 187 62 100 192 230 173 59 0 0 0 0 0 0 0 0 0
395 543 461 325 400 621 877 1155 1340 2102 2533 2469 2588 2698 2653 2446 2495 2524 2306 2421 2400 2095 1440 877 363 261 186 102 77 64 176 199 28 0 0 0 0 0 0 0 0 1 1
230 365 605 634 570 547 767 1120 1514 2048 2411 2516 2604 2674 2803 2579 2178 2362 2707 2779 2664 1892 1202 295 60 354 212 96 67 122 191 77 0 0 0 0 0 0 0 0 0 8 10
85 242 467 676 764 822 814 1052 1392 1990 2339 2422 2428 2639 2733 2661 2614 2599 2807 2859 2490 1952 846 200 77 249 192 57 142 34 73 0 0 0 0 0 0 0 0 0 2 19 21
51 140 273 556 724 820 979 1100 1366 1643 2209 2396 2318 2423 2540 2582 2893 2683 2914 3028 2074 1681 601 123 198 304 202 11 177 186 0 0 0 0 0 0 0 0 0 5 17 29 12
56 138 206 347 665 733 854 1128 1400 1620 1933 2256 2391 2559 2557 2699 2868 2882 2969 2611 2217 1246 322 276 361 410 54 74 208 46 0 0 0 0 0 0 0 0 0 19 24 8 9
244 197 264 385 629 773 863 1091 1429 1592 1880 2217 2490 2583 2647 2874 2974 2971 2948 2337 1411 1160 579 644 485 239 134 208 252 4 0 0 0 0 0 0 0 0 5 19 5 9 6
580 487 546 741 881 1022 1078 1172 1318 1649 1874 2162 2419 2656 2811 2910 3031 3029 2758 2236 1831 1370 858 617 352 208 175 282 145 0 0 6 0 0 0 0 0 0 8 4 2 5 13
752 831 1085 1232 1288 1371 1470 1533 1673 1745 1926 2282 2499 2715 2882 3070 2990 2933 2698 2310 1989 983 680 589 326 179 218 74 19 0 5 13 0 0 0 0 0 0 0 0 2 6 5
724 1019 1347 1692 1668 1668 1643 1756 1951 2086 2258 2593 2846 3004 3220 2943 2710 2442 2341 1906 1163 890 764 478 143 181 40 0 0 0 6 17 2 0 0 0 0 3 0 0 0 0 1
387 1049 1315 1581 1858 2070 2093 2003 2255 2633 2933 3139 3303 3339 2863 2398 2049 1899 1723 1389 1217 1199 794 176 148 80 104 0 0 0 3 7 18 2 0 0 0 3 6 0 0 6 1
138 969 1393 1591 1859 2003 2109 2356 2757 3186 3295 3419 3220 2554 2211 1943 1752 1514 1561 1689 1430 760 236 162 128 138 208 0 0 0 0 15 6 0 0 0 2 8 0 0 0 6 6
291 1124 1353 1563 1883 2252 2651 2935 2884 2891 3055 2950 2518 2180 2016 1838 1511 1456 1446 1009 531 313 151 93 170 256 72 0 0 0 0 1 0 0 0 0 2 0 0 0 0 0 2
1116 1490 1464 1893 2206 2753 2702 2598 2767 2695 2593 2602 2488 2035 2093 1844 1608 1534 982 659 467 254 70 149 266 123 41 0 0 0 0 0 0 0 0 0 0 0 0 0 0 0 0
1469 1572 1679 1983 2358 2415 2424 2265 2005 1508 1390 1462 1602 1834 2020 1938 1758 1076 745 457 335 203 170 222 112 59 208 1 0 0 0 0 0 0 0 0 0 0 0 0 0 0 0
1780 1918 1910 1906 1896 1735 1223 1105 1095 1544 1747 1953 2015 2100 2204 1944 1477 1046 749 587 418 388 291 251 179 186 115 0 0 0 0 0 0 0 0 0 0 0 0 0 0 0 0
1241 1173 1246 1427 1646 1618 1427 724 997 1413 1428 1707 1895 1562 1562 1425 1329 1092 662 557 472 178 216 249 135 106 164 0 0 0 0 0 0 0 0 0 0 0 0 0 0 0 0
507 311 227 224 302 703 1237 1515 1435 1239 1194 1079 1366 1404 1599 1262 1138 991 798 571 388 142 210 108 157 162 75 0 0 0 0 0 0 0 0 0 0 0 0 0 0 0 0
0 0 0 0 0 0 7 365 982 1442 1423 1418 1344 1510 1299 1416 981 493 328 328 151 176 242 104 118 51 17 0 0 0 0 0 0 0 0 0 0 0 0 0 0 0 0
0 0 0 0 0 2 31 117 284 647 1081 1092 694 511 521 528 341 4 0 0 0 0 0 0 1 0 0 0 0 0 0 0 0 0 0 0 0 0 0 0 0 0 0

GFSMW_con_mlcape_165.txt.gz
CAPE
187 416 631 716 857 1073 1322 1504 1576 1731 1729 1587 1464 1287 987 1028 1083 1140 1446 1779 1838 1582 1730 1252 1145 1413 1191 2395 2111 1566 552 0 0 0 0 0 0 20 10 0 0 0 1
8 120 322 509 617 869 1200 1576 1664 1895 2008 1661 1451 1134 961 891 1005 1042 1339 1848 1943 1955 1985 1914 1586 1468 1626 1573 2137 1784 490 0 0 0 4 0 0 0 0 0 0 4 0
0 3 210 403 525 668 996 1416 1829 1930 2170 1836 1614 1522 1547 1438 1295 1223 1415 1727 2135 2183 2178 2284 2581 2706 2583 1598 1897 1191 400 2 0 23 85 11 0 0 0 0 0 0 0
0 0 27 339 446 506 760 1268 1739 1963 2262 2232 1446 1555 1442 1181 1089 1310 1373 1368 1647 1974 2207 2588 2734 2936 2627 1999 1537 708 403 26 0 0 1 42 95 1 3 0 0 0 2
0 3 44 148 301 377 520 985 1889 2359 2326 2532 1866 1859 1666 1354 1274 1363 1587 2172 2047 2486 2471 2494 2651 2949 2359 1941 1559 525 239 46 56 21 44 8 0 0 0 0 0 0 0
0 9 214 255 324 328 474 770 1856 2655 2907 3032 2723 2537 2288 1951 1414 1454 1561 1640 1854 2298 2683 2509 2774 2591 2069 1576 808 344 162 463 352 400 170 0 0 0 0 0 0 0 0
60 0 88 461 618 592 577 726 1721 2784 3183 3024 3016 2967 2875 3197 2521 2646 1842 1693 1297 1381 2379 2591 2480 2103 1647 815 581 368 363 428 342 298 71 0 0 0 0 0 0 0 0
323 126 27 172 469 628 895 981 1232 2574 3227 3251 3301 3493 3400 2652 2432 2587 1975 1775 1476 1345 2266 2633 2354 1454 855 772 459 315 278 264 362 170 0 0 0 0 0 0 0 0 3
161 429 332 99 266 529 814 975 1202 2255 2998 3211 3524 3691 3690 3370 2410 2413 3191 2263 2469 1891 2514 2449 1801 1042 984 840 469 366 237 434 267 1 0 0 0 0 0 0 0 0 3
48 142 522 633 214 276 513 698 1052 1809 2790 3087 3605 3693 3875 3833 3370 3297 3163 2847 2816 3021 2917 1913 1157 903 861 755 532 359 287 538 27 0 0 0 0 0 0 0 0 9 29
17 23 204 576 767 357 358 614 902 1420 2728 2905 3071 3329 3727 3696 3898 3504 3477 3275 3336 3639 3073 1970 1291 870 934 816 604 700 442 60 0 0 0 0 0 0 0 0 3 11 16
0 5 43 290 658 846 710 534 936 1315 2239 2986 3301 3439 3669 3711 3715 3787 3627 3721 3759 3758 2780 1611 1201 1061 1048 716 660 585 279 0 0 0 0 0 0 0 0 0 4 7 27
28 69 92 225 496 835 1063 1213 1258 1412 2087 2862 3422 3706 3778 3894 3700 3865 3844 3793 3794 3610 2884 1768 991 1239 1088 722 684 597 160 0 0 1 0 0 0 0 0 0 7 19 17
88 504 469 480 653 1117 1289 1581 1639 1694 2177 2650 3068 3423 3480 3672 3702 3954 3843 3683 3833 3126 2176 1140 1000 1243 898 748 733 306 105 0 1 7 5 1 2 0 0 1 4 17 0
72 632 892 839 1204 1530 1591 1748 1743 1940 2303 2758 3048 3345 3477 3488 3570 3600 3405 3516 3081 2854 2456 1522 1442 1108 954 783 510 221 2 1 18 34 32 19 0 0 0 0 2 0 0
0 320 1226 1332 1484 1715 1964 1924 2025 2324 2474 2827 3024 3249 3439 3507 3442 3499 3337 3452 2780 2228 1938 1598 1450 1178 805 158 11 0 0 0 20 44 61 21 0 0 0 0 0 0 0
0 83 1094 1826 2121 2052 2231 2146 2366 2553 2858 3046 3159 3384 3663 3916 3665 3426 3174 2743 2324 1820 1628 1559 1372 920 716 0 0 0 0 0 2 65 62 0 0 0 0 0 0 0 12
0 2 805 1931 2514 2491 2516 2518 2619 2899 3050 3353 3583 4059 4058 3412 3131 2974 2511 2109 1852 1707 1326 1348 852 706 219 0 0 0 0 0 27 103 0 0 0 0 0 0 0 0 1
5 154 457 2072 2485 2632 2799 2806 3032 3356 3616 3739 3895 3236 3052 2695 2429 2269 2287 2083 1705 1676 1313 964 700 382 241 0 0 0 0 0 95 0 0 0 0 0 0 0 0 0 0
145 533 1297 2076 2519 2674 2890 3416 3700 3667 3692 3459 2980 2620 2506 2472 2293 2342 2452 2111 1681 1013 812 447 442 354 392 0 0 0 0 2 2 0 0 0 0 0 0 0 0 0 0
1441 1744 1721 2038 2583 3141 3502 3524 3410 3335 3083 2970 2830 2856 2863 2635 2449 2405 2165 1315 1009 797 472 402 426 411 117 6 0 0 0 0 0 0 0 0 0 0 0 0 0 0 0
1908 1998 2231 3028 3347 3256 3218 2978 2775 2380 2265 2436 2628 2707 2700 2507 2378 1768 1377 1147 920 837 537 464 247 93 271 3 0 0 0 0 0 0 0 0 0 0 0 0 0 0 0
2317 2650 2810 2872 2715 2268 2242 2226 2262 2285 2336 2612 2698 2707 2257 2044 1767 1403 1325 1119 968 822 562 431 253 238 265 0 0 0 0 0 0 0 0 0 0 0 0 0 0 0 0
2021 2043 2043 1971 2162 1920 1961 2147 2114 2250 2031 2001 2081 2346 2185 1945 1833 1574 1325 1100 895 704 375 221 341 312 299 0 0 0 0 0 0 0 0 0 0 0 0 0 0 0 0
1218 830 580 599 779 1070 1388 1780 2093 2137 2137 2095 1983 2091 1646 1712 1197 215 210 605 8 70 276 367 356 377 236 0 0 0 0 0 0 0 0 0 0 0 0 0 0 0 0
4 21 32 39 57 83 254 594 938 1242 1321 1324 1523 1789 1756 1287 866 124 0 0 0 0 0 0 6 0 0 0 0 0 0 0 0 0 0 0 0 0 0 0 0 0 0

GFSMW_con_mlcape_168.txt.gz
CAPE
400 619 710 792 934 1177 1742 1568 1762 1927 1952 1730 1667 1466 1405 1361 1265 1154 1507 2435 1820 1756 1719 1299 1443 1567 1706 1629 2272 2183 1187 143 27 0 0 0 4 20 0 4 7 0 47
169 419 705 882 986 1319 1543 1884 1855 2251 1853 2023 1808 1763 1391 1190 1070 1143 1558 1505 1712 1807 1961 1680 1647 1617 1789 1999 1801 1897 1064 254 0 1 2 57 0 0 0 35 0 4 0
5 205 545 686 863 1149 1501 1844 1963 2073 2161 2032 1982 1609 2037 1262 1495 1399 1674 1935 1875 2149 2326 2204 2473 2402 2578 2016 1962 1625 944 35 3 119 42 92 1 20 88 14 0 0 2
0 102 377 515 640 918 1452 1793 2113 2337 2595 1913 2227 1590 1269 1508 1214 1266 1489 1270 2014 2061 2242 2392 2551 2993 2782 2467 1778 1439 698 29 1 26 116 18 66 40 56 6 0 0 0
0 16 212 474 446 630 1139 1393 2185 2243 2445 2448 1980 1954 1727 1577 1341 1461 1326 1880 2292 2257 2339 2579 2685 2699 3160 2696 1858 1036 287 88 136 164 47 76 11 0 0 0 0 0 0
0 0 59 339 510 560 724 1266 1927 2120 2282 2614 1927 2186 1940 1428 1796 1373 1612 2089 1893 2530 2380 2650 2923 3171 2980 2173 1483 562 524 210 407 278 473 135 0 0 0 0 0 0 0
0 0 79 190 474 529 606 795 1554 2040 2363 2431 2710 1608 2152 2654 1559 2461 1880 1835 1914 2060 2810 2739 3127 2977 2651 1627 1079 730 520 418 569 476 439 10 0 0 0 0 0 0 0
76 0 179 329 444 500 556 703 1220 2062 2488 2643 3142 3139 2151 2814 3799 2370 2214 2597 1631 1809 2809 2931 2837 2629 2257 1499 1240 917 584 619 578 606 113 8 0 0 0 0 0 0 0
109 101 90 501 686 717 660 771 1036 1985 2665 2967 3085 3508 3656 2919 2664 3013 2838 2160 2825 2360 2801 2845 2723 2548 1661 1358 1206 771 688 533 694 381 18 0 0 0 0 0 0 0 0
20 275 192 133 668 934 936 972 1064 1980 2787 3240 3359 3370 3642 3933 3335 3222 2737 3150 2549 2394 3024 2679 2544 1993 1378 1225 1171 823 813 728 727 30 0 0 0 0 0 0 0 0 5
21 48 463 353 305 585 949 1183 1260 1271 2529 3526 3655 3686 3880 3988 4240 3617 3776 2996 3673 3098 3308 2809 2260 1613 1212 1037 965 868 1088 668 476 3 0 0 0 0 0 0 0 0 0
12 26 116 683 594 425 532 795 1196 1441 1653 3135 3597 3788 4018 4265 4292 4309 3871 4067 3576 3902 3725 3001 2239 1454 1062 1086 1153 1069 1036 703 138 3 0 0 0 0 0 0 0 0 0
0 4 32 110 931 829 609 594 929 1052 1558 2240 3417 3595 4045 4120 4412 4384 4513 4171 4150 3816 3866 3376 2314 1726 1250 1275 1164 1217 1079 509 17 0 0 0 0 0 0 0 0 0 13
0 5 314 438 943 972 1084 843 864 1111 1459 2209 3271 3520 3958 4104 4449 4434 4477 4402 4212 4014 3624 3073 2171 1341 1205 1633 1254 1246 785 301 1 9 1 0 2 0 0 0 0 2 0
0 113 575 965 1433 1495 1397 1489 1367 1296 1738 2368 3255 3808 4036 4419 4498 4445 4431 4503 4123 3950 3216 2517 2026 1580 1706 1363 1304 1141 414 94 33 43 53 23 0 0 0 0 0 0 0
0 0 515 1137 1403 2140 2089 2053 2344 2240 2233 2642 3321 3891 4131 4139 4208 4154 4174 3935 3942 3619 2955 2103 1810 1816 1510 1334 1180 654 254 57 35 42 96 118 0 0 0 0 0 0 0
0 0 133 981 1641 1974 2278 2203 2486 3025 2965 3236 3560 3829 4065 4137 4040 3832 3591 3537 3461 3269 2915 2337 2014 1619 1161 52 133 66 17 0 1 37 42 6 0 0 0 0 0 0 0
0 0 170 1402 2114 2258 2474 2514 2655 2983 3304 3542 3665 3873 4063 3961 4160 3935 3925 3801 3351 2768 2467 2154 1820 1502 292 0 0 0 0 0 18 57 54 0 0 0 0 0 0 0 0
0 143 169 2181 2597 2735 2843 2744 2932 3235 3482 3680 3753 4047 4300 4305 4036 3789 3504 3134 2657 2365 2096 1696 1486 1074 22 0 15 0 0 3 34 86 2 0 0 0 0 0 0 0 0
0 25 82 1352 3080 3224 3316 3214 3401 3591 3699 3907 4405 4256 3930 3479 2887 2749 2866 2684 2411 2035 1804 1395 1070 748 263 0 9 0 3 8 0 0 0 0 0 0 0 0 0 0 0
465 554 1285 2861 3315 3560 3434 3650 3891 4010 4234 4096 3579 3086 2960 2558 2386 2370 2781 2328 1772 1413 1236 934 712 576 315 9 0 0 0 0 0 0 0 0 0 0 0 0 0 0 0
1890 1895 2511 3035 3522 3533 3941 3969 3769 3928 3548 3247 2909 2716 2616 2352 2571 2317 1870 1600 1391 1088 886 749 662 558 20 0 0 0 0 0 0 0 0 0 0 0 0 0 0 0 0
2056 2935 3800 3934 4018 4061 4050 3838 3468 3162 3001 2652 2933 3005 2830 2772 2199 1849 1610 1485 1504 1147 884 701 493 297 4 0 0 0 0 0 0 0 0 0 0 0 0 0 0 0 0
3169 3411 3534 3350 3029 2938 2819 2730 2821 2970 3031 3187 2883 2454 2410 2221 2131 1899 1616 1563 1365 1252 832 789 490 173 161 0 0 0 0 0 0 0 0 0 0 0 0 0 0 0 0
2596 2612 2469 2429 2414 2382 2332 2427 2488 2441 2109 2376 2337 2057 2032 2135 1421 599 686 1193 184 467 665 440 237 108 91 0 0 0 0 0 0 0 0 0 0 0 0 0 0 0 0
1917 1725 1746 1944 2035 2176 2325 2483 2607 2605 2302 2181 2144 2008 2086 1456 1046 553 6 0 0 0 0 27 191 0 4 0 0 0 0 0 0 0 0 0 0 0 0 0 0 0 0

GFSMW_con_mlcape_171.txt.gz
CAPE
414 721 700 508 672 671 707 950 828 655 616 672 868 763 1059 698 695 840 1203 1372 1322 1042 1010 952 864 1608 1095 1541 1545 1804 1382 55 30 0 0 0 0 0 0 3 0 0 0
326 450 714 750 1082 1078 864 1136 1247 1526 879 1106 1012 1029 870 1144 1071 745 807 1723 1729 1248 1460 1430 1134 1192 2066 1883 1736 1675 1042 291 0 0 0 1 0 0 0 0 0 0 0
284 399 432 544 783 1146 1089 1019 1141 1539 1645 1395 1520 1570 1534 1021 1281 1085 905 1791 1732 1488 1277 1528 1425 1232 2316 1887 1723 1590 956 156 0 0 18 38 1 0 23 5 0 0 0
79 330 483 615 686 892 1238 1302 1265 1381 1663 1557 1470 1210 1333 1547 1313 1036 1514 1586 1423 1419 1606 1931 1856 1871 1971 2164 2007 1444 836 196 1 0 12 0 0 0 0 0 0 0 0
0 166 477 515 686 890 1103 1339 1321 1439 1741 1631 1518 1611 1276 1093 1135 1434 904 1285 1780 1790 1946 1906 1859 1930 2620 2842 1879 940 531 125 3 76 20 4 7 0 0 0 0 0 0
0 7 336 447 557 785 1106 1296 1401 1452 1712 1946 1551 1526 1839 1178 945 865 1298 908 1400 1962 1945 1892 2197 2144 2361 2363 1820 1207 563 177 161 214 84 205 0 0 0 0 0 0 0
0 0 111 386 373 546 1006 1268 1515 1455 1720 1950 1906 1433 1858 1800 1310 1613 1304 1497 2265 1995 1955 2094 2407 2642 2697 2327 1735 1148 495 339 334 349 372 165 0 0 0 0 0 0 0
0 0 27 248 318 327 522 1009 1272 1529 1678 1806 1942 1878 1344 2166 2257 1222 1498 2313 1876 1974 1925 2242 2538 2641 2441 1925 1423 1003 639 640 617 577 499 7 0 0 0 0 0 0 0
0 0 0 74 297 333 380 597 1081 1546 1662 1700 1799 2032 2008 1408 1968 3044 2312 1684 2140 2433 1890 2219 2625 2501 2293 1933 1261 922 638 557 811 753 397 0 0 0 0 0 0 0 0
0 0 2 18 192 362 385 513 668 1228 1637 1824 1800 1998 2402 2263 1717 1897 3103 3045 2074 1992 2655 2838 2645 2338 2025 1489 1118 875 592 429 525 310 0 0 0 0 0 0 0 0 0
17 0 9 46 104 278 407 416 542 1004 1481 1883 2214 2168 2518 3144 2942 2347 2304 2416 2641 2491 2601 2752 2455 2249 1994 1307 1028 973 510 693 728 300 0 0 0 0 0 0 0 0 0
19 127 78 58 313 424 501 467 510 781 1341 1952 2302 2739 2812 3037 3378 3448 3132 3323 2928 2999 3262 2758 2366 2117 1827 1233 1001 821 675 840 626 226 0 0 0 0 0 0 0 0 0
7 0 129 123 200 480 699 756 747 781 1398 2109 2518 2934 3156 3348 3414 3602 3898 3624 3528 3834 3466 3135 2691 2113 1709 1169 978 1053 793 838 389 28 3 0 0 0 0 0 0 0 0
0 1 115 436 237 202 525 849 984 1072 1183 2005 2493 2856 3301 3564 3802 3961 4121 4244 4098 3775 3905 3330 2867 2270 1673 1163 1172 1200 1076 537 112 1 6 0 0 0 0 0 0 0 0
0 0 2 58 583 730 283 435 791 1122 1327 1554 2384 2712 3254 3726 3874 4190 4402 4444 4383 4173 3836 3510 2881 2009 1589 1334 1522 1221 1088 413 27 36 34 19 0 0 0 0 0 0 0
0 0 22 159 213 826 1025 597 584 870 1167 1610 1801 2920 3265 3854 3931 4316 4484 4354 4249 4112 3766 3154 2664 2292 1660 1725 1366 1413 672 148 44 116 140 102 0 0 0 0 0 0 0
0 0 0 0 257 975 1732 1767 1207 996 1245 1500 2140 3074 3558 3932 4313 4461 4380 4138 3964 3782 3347 2954 2505 1994 1632 1088 841 767 22 14 53 30 89 38 0 0 0 0 0 0 0
4 6 84 565 844 1362 1777 2434 2879 2202 1976 2272 2971 3589 3966 4093 4106 3966 3921 3700 3508 3358 2974 2597 2246 1686 724 643 6 12 0 1 0 0 28 6 0 0 0 0 0 0 0
0 21 143 685 1470 1796 2106 2207 2670 3257 3281 3324 3652 3925 4005 3995 3964 3867 3540 3402 3281 3034 2761 2436 1870 1031 170 0 0 0 0 0 0 0 0 0 0 0 0 0 0 0 0
0 0 148 1583 1987 2302 2327 2429 2812 3195 3510 3754 3937 4008 3954 3843 3833 3707 3444 3124 2855 2554 2258 1796 1326 581 81 0 0 0 0 0 0 0 0 0 0 0 0 0 0 0 0
47 187 1056 1314 2375 2762 2753 2819 3110 3324 3858 3927 3941 3844 3656 3593 3406 3155 2939 2718 2371 2186 1753 1458 1062 582 40 0 0 0 0 0 0 0 0 0 0 0 0 0 0 0 0
1786 2062 2356 3233 3446 3346 3225 3472 3644 3798 3717 3756 3585 3180 2786 2705 2691 2678 2554 2200 1859 1622 1364 1060 830 265 0 0 0 0 0 0 0 0 0 0 0 0 0 0 0 0 0
2716 3087 3276 3539 3723 3730 3706 3814 3762 3701 3602 3191 2969 2493 2217 2218 2042 2156 2042 1740 1543 1273 1011 833 467 31 0 0 0 0 0 0 0 0 0 0 0 0 0 0 0 0 0
3399 3289 3225 3327 3461 3565 3500 3448 3218 2938 2600 2233 2261 2169 1900 1857 1957 1869 1612 1465 1302 961 837 718 466 9 0 0 0 0 0 0 0 0 0 0 0 0 0 0 0 0 0
2959 2861 2862 2902 2909 2981 3001 2952 2787 2475 2334 2345 2290 2128 2019 1843 957 211 221 818 72 524 894 722 402 41 0 0 0 0 0 0 0 0 0 0 0 0 0 0 0 0 0
2464 2389 2315 2256 2231 2418 2509 2512 2417 2237 2366 2288 2107 2037 1693 1138 441 212 2 0 0 0 44 404 252 0 7 0 0 0 0 0 0 0 0 0 0 0 0 0 0 0 0